Weather History for Winchester, VA

Change the Weather History Date:

Sunday, December 25, 2011

  Actual Average Record
Temperature  
Mean Temperature 37 °F -  
Max Temperature 48 °F 41 °F 55 °F (1988)
Min Temperature 26 °F 25 °F -3 °F (1983)
Degree Days  
Heating Degree Days 28    
Moisture  
Dew Point 29 °F    
Average Humidity 72    
Maximum Humidity 100    
Minimum Humidity 46    
Precipitation  
Precipitation 0.00 in - - ()
Sea Level Pressure  
Sea Level Pressure 30.17 in    
Wind  
Wind Speed 4 mph (SW)    
Max Wind Speed 21 mph    
Max Gust Speed 29 mph    
Visibility 10 miles    
Events      
Averages and records for this station are not official NWS values.
T = Trace of Precipitation, MM = Missing Value Source: NWS Daily Summary

Daily Weather History Graph

Daily Weather History Graph

Search for Another Location

Airport:

Trip Planner

Search our weather history database for the weather conditions in past years. The results will help you decide how hot, cold, wet, or windy it might be!

Date:

Astronomy

Dec. 25, 2011 Rise Set
Actual Time 7:29 AM EST 4:55 PM EST
Civil Twilight 6:59 AM EST 5:25 PM EST
Nautical Twilight 6:26 AM EST 5:58 PM EST
Astronomical Twilight 5:53 AM EST 6:31 PM EST
Moon 8:06 AM EST (12/25) 6:13 PM EST (12/25)
Length of Visible Light 10h 25m
Length of Day
9h 25m
New Moon, 1% of the Moon is Illuminated
Dec 25
New Moon
Jan 1
First Quarter
Jan 9
Full
Jan 16
Last Quarter
Jan 23
New

Hourly Weather History & Observations

Time (EST) Temp. Windchill Dew Point Humidity Pressure Visibility Wind Dir Wind Speed Gust Speed Precip Events Conditions
12:15 AM 33.8 °F 29.6 °F 28.4 °F 81% 30.35 in 10.0 mi South 4.6 mph - N/A   Clear
12:35 AM 33.8 °F 29.6 °F 28.4 °F 81% 30.35 in 10.0 mi South 4.6 mph - N/A   Scattered Clouds
12:55 AM 32.0 °F 27.5 °F 26.6 °F 80% 30.34 in 10.0 mi South 4.6 mph - N/A   Clear
1:15 AM 32.0 °F 28.7 °F 26.6 °F 80% 30.33 in 10.0 mi SW 3.5 mph - N/A   Mostly Cloudy
1:35 AM 32.0 °F - 26.6 °F 80% 30.33 in 10.0 mi Calm Calm - N/A   Mostly Cloudy
1:55 AM 30.2 °F - 26.6 °F 86% 30.34 in 10.0 mi Calm Calm - N/A   Scattered Clouds
2:15 AM 30.2 °F - 26.6 °F 86% 30.33 in 10.0 mi Calm Calm - N/A   Clear
2:35 AM 30.2 °F - 26.6 °F 86% 30.33 in 10.0 mi Calm Calm - N/A   Scattered Clouds
2:55 AM 28.4 °F - 26.6 °F 93% 30.32 in 10.0 mi Calm Calm - N/A   Scattered Clouds
3:15 AM 28.4 °F - 26.6 °F 93% 30.32 in 10.0 mi Calm Calm - N/A   Clear
3:35 AM 28.4 °F - 26.6 °F 93% 30.30 in 10.0 mi Calm Calm - N/A   Clear
3:55 AM 28.4 °F - 26.6 °F 93% 30.30 in 10.0 mi Calm Calm - N/A   Scattered Clouds
4:15 AM 28.4 °F - 26.6 °F 93% 30.30 in 10.0 mi Calm Calm - N/A   Mostly Cloudy
4:35 AM 28.4 °F - 26.6 °F 93% 30.29 in 10.0 mi Calm Calm - N/A   Overcast
4:55 AM 28.4 °F 24.6 °F 26.6 °F 93% 30.29 in 10.0 mi WSW 3.5 mph - N/A   Scattered Clouds
5:15 AM 30.2 °F 25.4 °F 26.6 °F 86% 30.29 in 10.0 mi WSW 4.6 mph - N/A   Clear
5:35 AM 30.2 °F 26.7 °F 26.6 °F 86% 30.29 in 10.0 mi SW 3.5 mph - N/A   Scattered Clouds
5:55 AM 30.2 °F - 26.6 °F 86% 30.29 in 10.0 mi Calm Calm - N/A   Scattered Clouds
6:15 AM 28.4 °F - 26.6 °F 93% 30.28 in 10.0 mi Calm Calm - N/A   Clear
6:35 AM 26.6 °F - 24.8 °F 93% 30.28 in 10.0 mi Calm Calm - N/A   Clear
6:55 AM 26.6 °F - 24.8 °F 93% 30.28 in 10.0 mi Calm Calm - N/A   Scattered Clouds
7:15 AM 26.6 °F - 24.8 °F 93% 30.28 in 10.0 mi Calm Calm - N/A   Clear
7:35 AM 26.6 °F - 24.8 °F 93% 30.28 in 10.0 mi Calm Calm - N/A   Clear
7:55 AM 26.6 °F - 24.8 °F 93% 30.28 in 10.0 mi Calm Calm - N/A   Scattered Clouds
8:15 AM 26.6 °F - 26.6 °F 100% 30.28 in 10.0 mi Calm Calm - N/A   Clear
8:35 AM 30.2 °F - 30.2 °F 100% 30.27 in 10.0 mi Calm Calm - N/A   Clear
8:55 AM 30.2 °F 24.3 °F 30.2 °F 100% 30.26 in 10.0 mi SSW 5.8 mph - N/A   Clear
9:15 AM 32.0 °F 27.5 °F 30.2 °F 93% 30.26 in 10.0 mi SSW 4.6 mph - N/A   Clear
9:35 AM 33.8 °F 28.6 °F 30.2 °F 87% 30.26 in 10.0 mi SSW 5.8 mph - N/A   Scattered Clouds
9:55 AM 33.8 °F 28.6 °F 30.2 °F 87% 30.25 in 10.0 mi SSW 5.8 mph - N/A   Clear
10:15 AM 35.6 °F 30.7 °F 30.2 °F 81% 30.25 in 10.0 mi SW 5.8 mph - N/A   Clear
10:35 AM 37.4 °F 32.1 °F 32.0 °F 81% 30.23 in 10.0 mi SSW 6.9 mph - N/A   Scattered Clouds
10:55 AM 39.2 °F 33.6 °F 32.0 °F 75% 30.22 in 10.0 mi SW 8.1 mph - N/A   Scattered Clouds
11:15 AM 41.0 °F 35.8 °F 32.0 °F 70% 30.21 in 10.0 mi SSW 8.1 mph - N/A   Scattered Clouds
11:35 AM 41.0 °F 38.0 °F 32.0 °F 70% 30.19 in 10.0 mi SSW 4.6 mph - N/A   Scattered Clouds
11:55 AM 41.0 °F 36.4 °F 32.0 °F 70% 30.18 in 10.0 mi SW 6.9 mph - N/A   Clear
12:15 PM 42.8 °F 38.0 °F 30.2 °F 61% 30.16 in 10.0 mi SW 8.1 mph - N/A   Scattered Clouds
12:35 PM 42.8 °F 38.0 °F 32.0 °F 66% 30.15 in 10.0 mi South 8.1 mph - N/A   Clear
12:55 PM 44.6 °F 40.2 °F 32.0 °F 61% 30.14 in 10.0 mi SSW 8.1 mph - N/A   Clear
1:15 PM 44.6 °F 40.2 °F 32.0 °F 61% 30.13 in 10.0 mi WSW 8.1 mph - N/A   Scattered Clouds
1:35 PM 46.4 °F 42.4 °F 32.0 °F 57% 30.12 in 10.0 mi SSW 8.1 mph - N/A   Scattered Clouds
1:55 PM 46.4 °F 41.5 °F 32.0 °F 57% 30.11 in 10.0 mi SSW 10.4 mph - N/A   Scattered Clouds
2:15 PM 46.4 °F 41.5 °F 32.0 °F 57% 30.10 in 10.0 mi SSW 10.4 mph - N/A   Clear
2:35 PM 48.2 °F - 32.0 °F 54% 30.09 in 10.0 mi SSW 8.1 mph - N/A   Scattered Clouds
2:55 PM 48.2 °F - 30.2 °F 50% 30.08 in 10.0 mi SSW 10.4 mph - N/A   Scattered Clouds
3:15 PM 48.2 °F - 32.0 °F 54% 30.07 in 10.0 mi South 6.9 mph - N/A   Clear
3:35 PM 48.2 °F - 32.0 °F 54% 30.06 in 10.0 mi South 4.6 mph - N/A   Scattered Clouds
3:55 PM 48.2 °F - 32.0 °F 54% 30.05 in 10.0 mi South 4.6 mph - N/A   Clear
4:15 PM 46.4 °F 44.3 °F 32.0 °F 57% 30.05 in 10.0 mi South 4.6 mph - N/A   Scattered Clouds
4:35 PM 46.4 °F 45.2 °F 32.0 °F 57% 30.03 in 10.0 mi South 3.5 mph - N/A   Clear
4:55 PM 44.6 °F 43.1 °F 30.2 °F 57% 30.02 in 10.0 mi South 3.5 mph - N/A   Scattered Clouds
5:15 PM 42.8 °F - 30.2 °F 61% 30.02 in 10.0 mi Calm Calm - N/A   Clear
5:35 PM 41.0 °F - 30.2 °F 65% 30.02 in 10.0 mi Calm Calm - N/A   Clear
5:55 PM 42.8 °F - 30.2 °F 61% 30.01 in 10.0 mi Calm Calm - N/A   Clear
6:15 PM 41.0 °F - 30.2 °F 65% 30.02 in 10.0 mi Calm Calm - N/A   Clear
6:35 PM 39.2 °F - 32.0 °F 75% 30.02 in 10.0 mi Calm Calm - N/A   Scattered Clouds
6:55 PM 37.4 °F - 30.2 °F 75% 30.03 in 10.0 mi Calm Calm - N/A   Scattered Clouds
7:15 PM 37.4 °F 34.9 °F 30.2 °F 75% 30.03 in 10.0 mi WSW 3.5 mph - N/A   Clear
7:35 PM 35.6 °F 28.6 °F 30.2 °F 81% 30.03 in 10.0 mi West 9.2 mph - N/A   Clear
7:55 PM 44.6 °F 40.7 °F 26.6 °F 49% 30.03 in 10.0 mi West 6.9 mph - N/A   Clear
8:15 PM 46.4 °F 41.5 °F 26.6 °F 46% 30.02 in 10.0 mi West 10.4 mph 18.4 mph N/A   Scattered Clouds
8:35 PM 46.4 °F 41.9 °F 26.6 °F 46% 30.03 in 10.0 mi West 9.2 mph 20.7 mph N/A   Scattered Clouds
8:55 PM 46.4 °F 39.8 °F 26.6 °F 46% 30.03 in 10.0 mi West 16.1 mph 21.9 mph N/A   Clear
9:15 PM 46.4 °F 40.7 °F 28.4 °F 50% 30.03 in 10.0 mi West 12.7 mph 24.2 mph N/A   Clear
9:35 PM 46.4 °F 40.7 °F 28.4 °F 50% 30.03 in 10.0 mi West 12.7 mph - N/A   Scattered Clouds
9:55 PM 46.4 °F 41.5 °F 28.4 °F 50% 30.02 in 10.0 mi West 10.4 mph 21.9 mph N/A   Scattered Clouds
10:15 PM 46.4 °F 39.0 °F 28.4 °F 50% 30.03 in 10.0 mi WNW 19.6 mph 28.8 mph N/A   Scattered Clouds
10:35 PM 46.4 °F 39.0 °F 28.4 °F 50% 30.03 in 10.0 mi West 19.6 mph 27.6 mph N/A   Scattered Clouds
10:55 PM 44.6 °F 36.4 °F 28.4 °F 53% 30.03 in 10.0 mi West 20.7 mph 26.5 mph N/A   Mostly Cloudy
11:15 PM 44.6 °F 37.4 °F 28.4 °F 53% 30.04 in 10.0 mi West 16.1 mph 21.9 mph N/A   Scattered Clouds
11:35 PM 44.6 °F 37.8 °F 28.4 °F 53% 30.04 in 10.0 mi WNW 15.0 mph 25.3 mph N/A   Clear
11:55 PM 44.6 °F 38.4 °F 28.4 °F 53% 30.04 in 10.0 mi WNW 12.7 mph 25.3 mph N/A   Mostly Cloudy